Imperial, NE

7:04 AM MDT on September 19, 2017 (GMT -0600)
Imperial Municipal

Weather History for KIML - December, 2013

Change the Weather History Date:

Saturday, December 21, 2013

  Actual Average Record
Temperature  
Mean Temperature 23 °F 28 °F  
Max Temperature 39 °F 40 °F 68 °F (1900)
Min Temperature 7 °F 15 °F -20 °F (1924)
Degree Days  
Heating Degree Days 42 38  
Month to date heating degree days 817 758  
Cooling Degree Days 0 0  
Month to date cooling degree days 0 0  
Year to date cooling degree days 1166 963  
Moisture  
Dew Point 11 °F    
Average Humidity 64    
Maximum Humidity 88    
Minimum Humidity 40    
Precipitation  
Precipitation 0.00 in 0.02 in 0.45 in (1920)
Sea Level Pressure  
Sea Level Pressure 29.83 in    
Wind  
Wind Speed 5 mph (North)    
Max Wind Speed 15 mph    
Max Gust Speed 18 mph    
Visibility 10 miles    
Events      
T = Trace of Precipitation, MM = Missing Value Source: NWS Daily Summary

Daily Weather History Graph

Daily Weather History Graph

Search for Another Location

Airport or City:

Trip Planner

Search our weather history database for the weather conditions in past years. The results will help you decide how hot, cold, wet, or windy it might be!

Date:

Astronomy

Dec. 21, 2013 Rise Set
Actual Time 7:06 AM MST 4:23 PM MST
Civil Twilight 6:35 AM MST 4:53 PM MST
Nautical Twilight 6:01 AM MST 5:28 PM MST
Astronomical Twilight 5:28 AM MST 6:01 PM MST
Moon 8:42 PM MST (12/21) 9:32 AM MST (12/21)
Length of Visible Light 10h 18m
Length of Day
9h 16m
Waning Gibbous, 84% of the Moon is Illuminated
Dec 21
Waning Gibbous
Dec 25
Last Quarter
Jan 1
New
Jan 7
First Quarter
Jan 15
Full

Hourly Weather History & Observations

Time (MST) Temp. Windchill Dew Point Humidity Pressure Visibility Wind Dir Wind Speed Gust Speed Precip Events Conditions
12:53 AM 14.0 °F 6.5 °F 7.0 °F 74% 29.81 in 10.0 mi SSW 4.6 mph - N/A   Clear
1:53 AM 12.0 °F - 6.1 °F 77% 29.80 in 10.0 mi Calm Calm - N/A   Clear
2:53 AM 12.0 °F 2.7 °F 6.1 °F 77% 29.80 in 10.0 mi WSW 5.8 mph - N/A   Clear
3:53 AM 12.9 °F 6.9 °F 8.1 °F 81% 29.76 in 10.0 mi NW 3.5 mph - N/A   Clear
4:53 AM 7.0 °F - 3.0 °F 84% 29.79 in 10.0 mi Calm Calm - N/A   Clear
5:53 AM 10.9 °F - 7.0 °F 84% 29.80 in 10.0 mi Calm Calm - N/A   Clear
6:53 AM 9.0 °F 0.6 °F 5.0 °F 84% 29.82 in 10.0 mi WNW 4.6 mph - N/A   Clear
7:53 AM 10.9 °F 2.9 °F 7.0 °F 84% 29.80 in 5.0 mi NNW 4.6 mph - N/A   Clear
8:53 AM 17.1 °F 10.0 °F 10.0 °F 74% 29.81 in 8.0 mi North 4.6 mph - N/A   Clear
9:53 AM 24.1 °F - 15.1 °F 69% 29.83 in 9.0 mi Calm Calm - N/A   Clear
10:53 AM 33.1 °F 25.5 °F 18.0 °F 54% 29.75 in 10.0 mi NNE 9.2 mph - N/A   Clear
11:53 AM 36.0 °F 28.5 °F 15.1 °F 43% 29.74 in 10.0 mi NE 10.4 mph - N/A   Clear
12:53 PM 37.9 °F 31.5 °F 15.1 °F 39% 29.73 in 10.0 mi NE 9.2 mph - N/A   Clear
1:53 PM 37.0 °F 31.0 °F 15.1 °F 41% 29.75 in 10.0 mi NE 8.1 mph - N/A   Mostly Cloudy
2:53 PM 36.0 °F 29.0 °F 15.1 °F 43% 29.78 in 10.0 mi NE 9.2 mph - N/A   Overcast
3:53 PM 32.0 °F 25.6 °F 14.0 °F 48% 29.79 in 10.0 mi NE 6.9 mph - N/A   Clear
4:53 PM 25.0 °F 18.1 °F 12.0 °F 58% 29.84 in 10.0 mi NNE 5.8 mph - N/A   Clear
5:53 PM 28.0 °F 21.7 °F 14.0 °F 56% 29.84 in 10.0 mi North 5.8 mph - N/A   Scattered Clouds
6:53 PM 27.0 °F 23.0 °F 14.0 °F 58% 29.88 in 10.0 mi North 3.5 mph - N/A   Mostly Cloudy
7:53 PM 28.0 °F 24.2 °F 14.0 °F 56% 29.90 in 10.0 mi NNW 3.5 mph - N/A   Mostly Cloudy
8:53 PM 23.0 °F 13.1 °F 12.9 °F 65% 29.94 in 10.0 mi NE 9.2 mph - N/A   Clear
9:53 PM 19.0 °F 10.0 °F 10.9 °F 71% 29.96 in 10.0 mi NNE 6.9 mph - N/A   Scattered Clouds
10:53 PM 21.9 °F 11.7 °F 12.0 °F 66% 29.97 in 10.0 mi NNW 9.2 mph - N/A   Overcast
11:53 PM 21.9 °F 15.7 °F 12.0 °F 66% 29.98 in 10.0 mi NNW 4.6 mph - N/A   Overcast